Regional Weather Roundup
Issued by NWS

Home | Current Version | Previous Version | Graphics & Text | Print | Product List | Glossary On
Versions: 1 2 3 4 5 6 7 8 9 10 11 12 13 14 15 16 17 18 19 20 21 22 23 24 25 26 27 28 29 30 31 32 33 34 35 36 37 38 39 40 41 42 43 44 45 46 47 48 49 50
000
ASUS43 KOAX 051110
RWRNE

WEATHER ROUNDUP FOR NEBRASKA
NATIONAL WEATHER SERVICE OMAHA NE
600 AM CDT WED AUG 05 2015

NOTES: SATELLITE DATA IS BEING USED TO AUGMENT CLOUD COVER ABOVE
       12000 FEET.
       "FAIR" INDICATES FEW OR NO CLOUDS BELOW 12,000 FEET WITH NO
       SIGNIFICANT WEATHER AND/OR OBSTRUCTIONS TO VISIBILITY.

  * THESE STATIONS DO NOT REPORT WEATHER SUCH AS RAIN...SNOW OR FOG.

NEZ001>004-019>022-054>056-051200-
NEBRASKA PANHANDLE

CITY           SKY/WX    TMP DP  RH WIND       PRES   REMARKS
SCOTTSBLUFF    FOG       60  59  96 CALM      30.07R VSB 1/2
ALLIANCE       FOG       52  52 100 CALM      30.05F VSB 1/4
CHADRON        CLEAR     56  54  93 W5        30.02S
KIMBALL        CLEAR     54  52  94 W6        30.10S
SIDNEY         CLEAR     53  52  96 W3        30.08F
$$

NEZ057>060-069>072-079>082-051200-
SOUTHWEST NEBRASKA

CITY           SKY/WX    TMP DP  RH WIND       PRES   REMARKS
NORTH PLATTE   FOG       62  62 100 CALM      30.01F VSB 1/2
IMPERIAL       PTCLDY    57  55  93 NW3       30.04R
LEXINGTON      FOG       65  64  97 NW3       30.00S VSB 1/4
MCCOOK         CLEAR     59  58  96 CALM      30.02R
OGALLALA       FOG       58  58 100 CALM      30.05R VSB 1/2
$$

NEZ005>010-023>029-035>040-094-051200-
NORTH CENTRAL NEBRASKA

CITY           SKY/WX    TMP DP  RH WIND       PRES   REMARKS
AINSWORTH      CLOUDY    66  65  98 CALM      30.02R FOG
BROKEN BOW     FOG       65  63  93 CALM      30.00S VSB 1/2
O`NEILL        CLOUDY    67  66  99 CALM      30.02R FOG
ORD            CLOUDY    62  61  96 W3        29.98F
THEDFORD       FOG       62  61  98 CALM      30.03S VSB 1/2
$$

NEZ041-046>049-061>064-073>077-083>087-051200-
SOUTH CENTRAL NEBRASKA

CITY           SKY/WX    TMP DP  RH WIND       PRES   REMARKS
GRAND ISLAND   MOCLDY    65  63  93 E3        30.00S
AURORA         CLOUDY    66  66 100 CALM      29.99S
HASTINGS       CLOUDY    64  63  96 NE6       29.99S FOG
HEBRON         CLOUDY    67  64  88 NE5       29.96S
HOLDREGE       MOCLDY    60  59  96 CALM      30.00R FOG
KEARNEY *      PTCLDY    61  57  88 CALM      30.00S
YORK           LGT RAIN  66  66 100 CALM      29.98S
$$

NEZ011>018-030>034-042>045-051200-
NORTHEAST NEBRASKA

CITY           SKY/WX    TMP DP  RH WIND       PRES   REMARKS
NORFOLK        CLOUDY    68  65  90 CALM      29.99F
ALBION         FOG       66  65  94 E5        29.99F VSB 1/2
BLAIR          CLOUDY    65  64  93 E3        29.97F FOG
COLUMBUS *     CLOUDY    66  63  88 CALM      29.99R
FREMONT        CLOUDY    68  66  92 CALM      29.97F
TEKAMAH        CLOUDY    65  64  97 CALM      29.97S
WAYNE          CLOUDY    64  64  97 NE5       30.01S
$$

NEZ050>053-065>068-078-088>093-051200-
SOUTHEAST NEBRASKA

CITY           SKY/WX    TMP DP  RH WIND       PRES   REMARKS
LINCOLN        CLOUDY    71  68  90 S6        29.97S
OMAHA EPPLEY   CLOUDY    68  66  93 E3        29.97S
BEATRICE       CLOUDY    69  68  97 CALM      29.96F FOG
FALLS CITY     CLOUDY    69  68  96 E6        29.96S FOG
NEBRASKA CITY  CLOUDY    67  67  99 S3        29.97S FOG
PLATTSMOUTH    CLOUDY    67  66  96 SE6       29.97S FOG
$$

NEZ044-045-051>053-067-051200-
OMAHA AREA

CITY           SKY/WX    TMP DP  RH WIND       PRES   REMARKS
OMAHA EPPLEY   CLOUDY    68  66  93 E3        29.97S
BLAIR          CLOUDY    65  64  93 E3        29.97F FOG
FREMONT        CLOUDY    68  66  92 CALM      29.97F
MILLARD        CLOUDY    69  67  94 CALM      29.96S
OFFUTT AFB     CLOUDY    67  66  97 E6        29.96S
PLATTSMOUTH    CLOUDY    67  66  96 SE6       29.97S FOG
WAHOO          CLOUDY    69  67  94 SE6       29.97S FOG
$$



USA.gov is the U.S. government's official web portal to all federal, state and local government web resources and services.